Terug naar catalogus

STARLINK-3937

ActiefCommunicatieVLEO
NORAD 52542·PAYLOAD·🇺🇸 United States

Gelanceerd May 13, 2022 vanaf Vandenberg Space Force Base

Loading…

Volgende Passages (komende 24 uur)

TLE

VersSource: CelesTrak SupGP

Epoch: Sep 14, 2026, 22:14 UTC

1 52542C 22051K   26257.92687500 -.00044743  00000+0 -13221-2 0  2578
2 52542  53.1583 343.7094 0001230  82.4088 182.6734 15.34408517    11

Volg STARLINK-3937 in realtime met AllMySat

Download on the App Store